When you browse on this site, cookies collect data to enhance your experience and personalize the content and advertising you see.
Visit our Privacy Policy to learn more. By continuing to use the site, you agree to this use of cookies and data.
  • In Spain
  • List of Countries
  • For 7 days
  • Water Temperature
  • Satellite Maps
  • Weather Map
  • Weather Widgets
  • user-avatar
    Login

    Hourly Weather Hadera

    Today, 23 April, Tuesday

    Time Temperature Precipitation Wind Pressure Humidity
    00:00 +10°C° 0 mm 1 mps 720 mmHg 66%
    01:00 +10°C° 0 mm 1 mps 720 mmHg 68%
    02:00 +10°C° 0 mm 1 mps 721 mmHg 69%
    03:00 +9°C° 0 mm 1 mps 721 mmHg 71%
    04:00 +9°C° 0 mm 1 mps 721 mmHg 74%
    05:00 +9°C° 0 mm 1 mps 721 mmHg 76%
    06:00 +10°C° 0 mm 0 mps 722 mmHg 68%
    07:00 +12°C° 0 mm 0 mps 722 mmHg 59%
    08:00 +15°C° 0 mm 0 mps 723 mmHg 50%
    09:00 +16°C° 0 mm 1 mps 723 mmHg 48%
    10:00 +18°C° 0 mm 1 mps 724 mmHg 45%
    11:00 +18°C° 0 mm 2 mps 724 mmHg 42%
    12:00 +18°C° 0 mm 2 mps 724 mmHg 44%
    13:00 +18°C° 0 mm 2 mps 724 mmHg 46%
    14:00 +18°C° 0 mm 3 mps 724 mmHg 48%
    15:00 +17°C° 0 mm 3 mps 724 mmHg 51%
    16:00 +17°C° 0 mm 2 mps 724 mmHg 53%
    17:00 +16°C° 0 mm 2 mps 724 mmHg 56%
    18:00 +15°C° 0 mm 2 mps 724 mmHg 63%
    19:00 +14°C° 0 mm 2 mps 724 mmHg 70%
    20:00 +13°C° 0 mm 1 mps 724 mmHg 76%
    21:00 +13°C° 0 mm 2 mps 724 mmHg 78%
    22:00 +12°C° 0 mm 2 mps 724 mmHg 80%
    23:00 +12°C° 0 mm 2 mps 725 mmHg 82%

    Tomorrow, 24 April, Wednesday

    Time Temperature Precipitation Wind Pressure Humidity
    00:00 +12°C° 0 mm 2 mps 725 mmHg 80%
    01:00 +12°C° 0 mm 2 mps 724 mmHg 77%
    02:00 +12°C° 0 mm 2 mps 724 mmHg 74%
    03:00 +12°C° 0 mm 2 mps 724 mmHg 68%
    04:00 +12°C° 0 mm 1 mps 724 mmHg 62%
    05:00 +12°C° 0 mm 1 mps 724 mmHg 56%
    06:00 +14°C° 0 mm 1 mps 724 mmHg 51%
    07:00 +16°C° 0 mm 1 mps 725 mmHg 46%
    08:00 +17°C° 0 mm 0 mps 725 mmHg 40%
    09:00 +20°C° 0 mm 1 mps 725 mmHg 39%
    10:00 +21°C° 0 mm 1 mps 726 mmHg 38%
    11:00 +21°C° 0 mm 1 mps 726 mmHg 38%
    12:00 +21°C° 0 mm 2 mps 726 mmHg 40%
    13:00 +21°C° 0 mm 2 mps 726 mmHg 42%
    14:00 +21°C° 0 mm 3 mps 725 mmHg 44%
    15:00 +20°C° 0 mm 3 mps 725 mmHg 46%
    16:00 +20°C° 0 mm 2 mps 725 mmHg 49%
    17:00 +19°C° 0 mm 2 mps 724 mmHg 51%
    18:00 +18°C° 0 mm 2 mps 724 mmHg 55%
    19:00 +17°C° 0 mm 2 mps 724 mmHg 60%
    20:00 +16°C° 0 mm 2 mps 724 mmHg 64%
    21:00 +16°C° 0 mm 2 mps 724 mmHg 61%
    22:00 +16°C° 0 mm 2 mps 723 mmHg 58%
    23:00 +16°C° 0 mm 2 mps 723 mmHg 55%

    Day after tomorrow, 25 April, Thursday

    Time Temperature Precipitation Wind Pressure Humidity
    00:00 +15°C° 0 mm 2 mps 723 mmHg 55%
    01:00 +15°C° 0 mm 2 mps 723 mmHg 56%
    02:00 +15°C° 0 mm 2 mps 723 mmHg 57%
    03:00 +15°C° 0 mm 2 mps 722 mmHg 55%
    04:00 +14°C° 0 mm 2 mps 722 mmHg 53%
    05:00 +14°C° 0 mm 1 mps 722 mmHg 51%
    06:00 +16°C° 0 mm 1 mps 722 mmHg 48%
    07:00 +19°C° 0 mm 1 mps 723 mmHg 44%
    08:00 +22°C° 0 mm 1 mps 723 mmHg 40%
    09:00 +23°C° 0 mm 1 mps 723 mmHg 40%
    10:00 +23°C° 0 mm 2 mps 723 mmHg 40%
    11:00 +24°C° 0 mm 2 mps 723 mmHg 40%
    12:00 +24°C° 0 mm 2 mps 723 mmHg 41%
    13:00 +24°C° 0 mm 2 mps 722 mmHg 43%
    14:00 +24°C° 0 mm 3 mps 722 mmHg 45%
    15:00 +22°C° 0 mm 3 mps 722 mmHg 47%
    16:00 +22°C° 0 mm 3 mps 721 mmHg 49%
    17:00 +21°C° 0 mm 3 mps 721 mmHg 52%
    18:00 +19°C° 0 mm 2 mps 721 mmHg 58%
    19:00 +18°C° 0 mm 2 mps 721 mmHg 64%
    20:00 +16°C° 0 mm 2 mps 721 mmHg 70%
    21:00 +16°C° 0 mm 2 mps 720 mmHg 68%
    22:00 +16°C° 0 mm 1 mps 720 mmHg 66%
    23:00 +16°C° 0 mm 1 mps 720 mmHg 64%

    26 April, Friday

    Time Temperature Precipitation Wind Pressure Humidity
    00:00 +16°C° 0 mm 1 mps 720 mmHg 62%
    01:00 +15°C° 0 mm 1 mps 719 mmHg 60%
    02:00 +15°C° 0 mm 1 mps 719 mmHg 58%
    03:00 +15°C° 0 mm 1 mps 719 mmHg 57%
    04:00 +15°C° 0 mm 1 mps 718 mmHg 56%
    05:00 +15°C° 0 mm 1 mps 718 mmHg 56%
    06:00 +18°C° 0 mm 1 mps 719 mmHg 52%
    07:00 +20°C° 0 mm 1 mps 719 mmHg 48%
    08:00 +22°C° 0 mm 1 mps 719 mmHg 44%
    09:00 +22°C° 0 mm 1 mps 719 mmHg 46%
    10:00 +23°C° 0 mm 1 mps 720 mmHg 47%
    11:00 +23°C° 0 mm 2 mps 720 mmHg 48%
    12:00 +24°C° 0 mm 2 mps 719 mmHg 49%
    13:00 +24°C° 0 mm 2 mps 719 mmHg 50%
    14:00 +24°C° 0 mm 2 mps 718 mmHg 51%
    15:00 +24°C° 0 mm 2 mps 718 mmHg 53%
    16:00 +23°C° 0 mm 2 mps 718 mmHg 54%
    17:00 +22°C° 0 mm 3 mps 718 mmHg 55%
    18:00 +21°C° 0 mm 2 mps 718 mmHg 62%
    19:00 +20°C° 0 mm 1 mps 718 mmHg 68%
    20:00 +17°C° 0 mm 0 mps 718 mmHg 75%
    21:00 +19°C° 0 mm 1 mps 718 mmHg 75%
    22:00 +19°C° 0 mm 1 mps 718 mmHg 75%
    23:00 +18°C° 0 mm 1 mps 717 mmHg 75%

    27 April, Saturday

    Time Temperature Precipitation Wind Pressure Humidity
    00:00 +18°C° 0 mm 1 mps 717 mmHg 75%
    01:00 +18°C° 0 mm 1 mps 717 mmHg 74%
    02:00 +16°C° 0 mm 1 mps 717 mmHg 74%
    03:00 +16°C° 0 mm 1 mps 717 mmHg 74%
    04:00 +16°C° 0 mm 1 mps 717 mmHg 74%
    05:00 +16°C° 0 mm 1 mps 717 mmHg 74%
    06:00 +18°C° 0 mm 1 mps 717 mmHg 66%
    07:00 +20°C° 0 mm 1 mps 717 mmHg 59%
    08:00 +22°C° 0 mm 1 mps 718 mmHg 51%
    09:00 +23°C° 0 mm 1 mps 718 mmHg 49%
    10:00 +24°C° 0 mm 1 mps 718 mmHg 48%
    11:00 +24°C° 0 mm 2 mps 718 mmHg 46%
    12:00 +24°C° 0 mm 2 mps 718 mmHg 47%
    13:00 +24°C° 0 mm 2 mps 718 mmHg 48%
    14:00 +24°C° 0 mm 2 mps 718 mmHg 49%
    15:00 +23°C° 0 mm 2 mps 718 mmHg 51%
    16:00 +23°C° 0 mm 2 mps 717 mmHg 54%
    17:00 +22°C° 0 mm 1 mps 717 mmHg 56%
    18:00 +21°C° 0 mm 1 mps 717 mmHg 62%
    19:00 +20°C° 0 mm 1 mps 717 mmHg 67%
    20:00 +17°C° 0 mm 0 mps 717 mmHg 73%
    21:00 +16°C° 0 mm 0 mps 717 mmHg 73%
    22:00 +16°C° 0 mm 0 mps 718 mmHg 73%
    23:00 +16°C° 0 mm 0 mps 718 mmHg 73%

    28 April, Sunday

    Time Temperature Precipitation Wind Pressure Humidity
    00:00 +16°C° 0 mm 0 mps 717 mmHg 73%
    01:00 +16°C° 0 mm 1 mps 717 mmHg 73%
    02:00 +16°C° 0 mm 1 mps 717 mmHg 74%
    03:00 +16°C° 0 mm 1 mps 717 mmHg 74%
    04:00 +16°C° 0 mm 1 mps 717 mmHg 74%
    05:00 +15°C° 0 mm 1 mps 717 mmHg 74%
    06:00 +16°C° 0 mm 0 mps 717 mmHg 66%
    07:00 +18°C° 0 mm 0 mps 718 mmHg 59%
    08:00 +20°C° 0 mm 0 mps 718 mmHg 52%
    09:00 +23°C° 0 mm 1 mps 718 mmHg 50%
    10:00 +24°C° 0 mm 1 mps 719 mmHg 48%
    11:00 +24°C° 0 mm 2 mps 719 mmHg 46%
    12:00 +24°C° 0 mm 2 mps 719 mmHg 47%
    13:00 +24°C° 0 mm 2 mps 718 mmHg 47%
    14:00 +24°C° 0 mm 2 mps 718 mmHg 48%
    15:00 +24°C° 0 mm 2 mps 718 mmHg 49%
    16:00 +23°C° 0 mm 2 mps 718 mmHg 51%
    17:00 +23°C° 0 mm 2 mps 717 mmHg 52%
    18:00 +20°C° 0 mm 2 mps 718 mmHg 57%
    19:00 +19°C° 0 mm 2 mps 718 mmHg 61%
    20:00 +19°C° 0 mm 1 mps 718 mmHg 66%
    21:00 +19°C° 0 mm 1 mps 718 mmHg 66%
    22:00 +18°C° 0 mm 1 mps 718 mmHg 66%
    23:00 +18°C° 0 mm 1 mps 718 mmHg 66%
    Show more